Location: Chuathbaluk
(61.5726°N, 159.2454°W)
Time: 23:15:52
(UTC+00:00)

Transit 4A - Pass Details

Date: 05 December 2020
Orbit: 864 x 980 km, 66.8° (Epoch: 20 January)

Event Time Altitude Azimuth Distance (km) Brightness Sun altitude
Rises 02:06:40 0° 311° (NW) 3,692 11.1 -4.7°
Reaches altitude 10° 02:09:30 10° 303° (WNW) 2,735 10.6 -4.9°
Maximum altitude 02:15:04 33° 242° (WSW) 1,575 10.1 -5.4°
Drops below altitude 10° 02:20:32 10° 181° (S) 2,672 10.9 -5.9°
Sets 02:23:16 0° 172° (S) 3,595 11.4 -6.2°
